User: anonymous   Login
Location: ??????
(41.3164°N, 22.6615°E)
Time: 17:04:06
(UTC+00:00)
Language:

COSMOS 2251 DEB - Orbit

View from above orbital plane
View from above orbital plane
View from above satellite
View from above satellite

Ground track
Ground track

The orbit data is extracted from the following two-line orbital elements,

1 35431U 93036AJZ 22126.69075719  .00051429  00000-0  54127-2 0  9996
2 35431  74.0092 123.8865 0017680 217.1078 142.8882 14.89005350693445
Epoch (UTC): 06 May 2022 16:34:41
Eccentricity: 0.0017680
inclination: 74.0092°
perigee height: 589 km
apogee height: 613 km
right ascension of ascending node: 123.8865°
argument of perigee: 217.1078°
revolutions per day: 14.89005350
mean anomaly at epoch: 142.8882°
orbit number at epoch: 69344

The dashed part of the orbit path shows where the satellite is in the earth's shadow,  

DLR